EN

Hourly Weather Alten-Buseck

Today, 28 January, Thursday

Time Temperature Precipitation Wind Pressure Humidity
00:00 +2°C° 0 mm 2 mps 737 mmHg 96%
01:00 +2°C° 0 mm 2 mps 737 mmHg 95%
02:00 +2°C° 0 mm 2 mps 737 mmHg 95%
03:00 +2°C° 0 mm 2 mps 736 mmHg 96%
04:00 +2°C° 0 mm 2 mps 736 mmHg 97%
05:00 +2°C° 0 mm 2 mps 735 mmHg 97%
06:00 +2°C° 0 mm 2 mps 734 mmHg 97%
07:00 +2°C° 0 mm 2 mps 733 mmHg 98%
08:00 +2°C° 1.1 mm 2 mps 733 mmHg 98%
09:00 +2°C° 1.1 mm 2 mps 732 mmHg 98%
10:00 +2°C° 1.1 mm 2 mps 731 mmHg 98%
11:00 +2°C° 1.6 mm 2 mps 730 mmHg 99%
12:00 +3°C° 1.6 mm 1 mps 729 mmHg 99%
13:00 +4°C° 1.6 mm 1 mps 728 mmHg 99%
14:00 +3°C° 1.2 mm 2 mps 728 mmHg 98%
15:00 +4°C° 1.2 mm 2 mps 728 mmHg 98%
16:00 +5°C° 1.2 mm 2 mps 728 mmHg 97%
17:00 +5°C° 0.9 mm 2 mps 729 mmHg 97%
18:00 +5°C° 0.9 mm 2 mps 729 mmHg 97%
19:00 +5°C° 0.9 mm 2 mps 730 mmHg 97%
20:00 +5°C° 0.2 mm 1 mps 730 mmHg 97%
21:00 +5°C° 0.2 mm 1 mps 731 mmHg 97%
22:00 +4°C° 0.2 mm 0 mps 731 mmHg 97%
23:00 +6°C° 0.1 mm 1 mps 731 mmHg 96%

Tomorrow, 29 January, Friday

Time Temperature Precipitation Wind Pressure Humidity
00:00 +5°C° 0.1 mm 2 mps 731 mmHg 96%
01:00 +4°C° 0.1 mm 3 mps 731 mmHg 95%
02:00 +5°C° 0.1 mm 2 mps 730 mmHg 95%
03:00 +5°C° 0.1 mm 2 mps 729 mmHg 95%
04:00 +5°C° 0.1 mm 2 mps 728 mmHg 95%
05:00 +5°C° 1.3 mm 2 mps 727 mmHg 96%
06:00 +6°C° 1.3 mm 2 mps 726 mmHg 97%
07:00 +6°C° 1.3 mm 2 mps 725 mmHg 98%
08:00 +7°C° 0.5 mm 3 mps 725 mmHg 95%
09:00 +6°C° 0.5 mm 4 mps 725 mmHg 92%
10:00 +7°C° 0.5 mm 5 mps 725 mmHg 88%
11:00 +7°C° 0.1 mm 5 mps 726 mmHg 85%
12:00 +7°C° 0.1 mm 6 mps 726 mmHg 81%
13:00 +7°C° 0.1 mm 6 mps 727 mmHg 78%
14:00 +7°C° 0.2 mm 6 mps 726 mmHg 79%
15:00 +7°C° 0.2 mm 5 mps 726 mmHg 81%
16:00 +6°C° 0.2 mm 4 mps 726 mmHg 82%
17:00 +6°C° 0.3 mm 4 mps 726 mmHg 85%
18:00 +5°C° 0.3 mm 4 mps 726 mmHg 88%
19:00 +5°C° 0.3 mm 4 mps 726 mmHg 91%
20:00 +5°C° 0.2 mm 4 mps 727 mmHg 90%
21:00 +5°C° 0.2 mm 4 mps 727 mmHg 89%
22:00 +5°C° 0.2 mm 4 mps 727 mmHg 88%
23:00 +5°C° 0.1 mm 4 mps 728 mmHg 88%

Day after tomorrow, 30 January, Saturday

Time Temperature Precipitation Wind Pressure Humidity
00:00 +5°C° 0.1 mm 4 mps 728 mmHg 88%
01:00 +5°C° 0.1 mm 4 mps 728 mmHg 88%
02:00 +5°C° 0.2 mm 5 mps 728 mmHg 88%
03:00 +5°C° 0.2 mm 5 mps 728 mmHg 88%
04:00 +5°C° 0.2 mm 5 mps 728 mmHg 88%
05:00 +4°C° 0.3 mm 4 mps 728 mmHg 89%
06:00 +3°C° 0.3 mm 4 mps 728 mmHg 90%
07:00 +3°C° 0.3 mm 3 mps 728 mmHg 92%
08:00 +2°C° 0.2 mm 3 mps 728 mmHg 91%
09:00 0°C° 0.2 mm 3 mps 728 mmHg 90%
10:00 -1°C° 0.2 mm 3 mps 728 mmHg 89%
11:00 -1°C° 0.2 mm 3 mps 728 mmHg 88%
12:00 -1°C° 0.2 mm 3 mps 727 mmHg 87%
13:00 -1°C° 0.2 mm 3 mps 727 mmHg 86%
14:00 -2°C° 0.4 mm 4 mps 727 mmHg 88%
15:00 -2°C° 0.4 mm 4 mps 726 mmHg 90%
16:00 -2°C° 0.4 mm 5 mps 726 mmHg 91%
17:00 -2°C° 0.8 mm 5 mps 726 mmHg 92%
18:00 -4°C° 0.8 mm 5 mps 726 mmHg 94%
19:00 -4°C° 0.8 mm 5 mps 726 mmHg 95%
20:00 -3°C° 0.5 mm 4 mps 726 mmHg 94%
21:00 -3°C° 0.5 mm 4 mps 727 mmHg 94%
22:00 -3°C° 0.5 mm 4 mps 727 mmHg 94%
23:00 -2°C° 0.2 mm 3 mps 727 mmHg 94%

31 January, Sunday

Time Temperature Precipitation Wind Pressure Humidity
00:00 -2°C° 0.2 mm 3 mps 727 mmHg 94%
01:00 -2°C° 0.2 mm 3 mps 727 mmHg 94%
02:00 -4°C° 0.2 mm 3 mps 727 mmHg 94%
03:00 -4°C° 0.2 mm 3 mps 727 mmHg 94%
04:00 -3°C° 0.2 mm 2 mps 727 mmHg 95%
05:00 -3°C° 0.2 mm 2 mps 727 mmHg 95%
06:00 -3°C° 0.2 mm 2 mps 727 mmHg 95%
07:00 -3°C° 0.2 mm 2 mps 728 mmHg 95%
08:00 -3°C° 0.3 mm 2 mps 728 mmHg 95%
09:00 -2°C° 0.3 mm 2 mps 728 mmHg 94%
10:00 -2°C° 0.3 mm 2 mps 728 mmHg 94%
11:00 -1°C° 0.1 mm 2 mps 728 mmHg 94%
12:00 +1°C° 0.1 mm 1 mps 728 mmHg 93%
13:00 +2°C° 0.1 mm 1 mps 727 mmHg 93%
14:00 +2°C° 0.1 mm 1 mps 727 mmHg 94%
15:00 +2°C° 0.1 mm 1 mps 727 mmHg 95%
16:00 +2°C° 0.1 mm 1 mps 726 mmHg 96%
17:00 +2°C° 0 mm 1 mps 726 mmHg 97%
18:00 +2°C° 0 mm 1 mps 726 mmHg 97%
19:00 +2°C° 0 mm 1 mps 725 mmHg 98%
20:00 +2°C° 0.1 mm 1 mps 725 mmHg 98%
21:00 +2°C° 0.1 mm 1 mps 725 mmHg 98%
22:00 +2°C° 0.1 mm 1 mps 725 mmHg 98%
23:00 +2°C° 0 mm 1 mps 724 mmHg 97%

1 February, Monday

Time Temperature Precipitation Wind Pressure Humidity
00:00 +1°C° 0 mm 2 mps 724 mmHg 97%
01:00 +1°C° 0 mm 2 mps 724 mmHg 97%
02:00 +1°C° 0 mm 2 mps 724 mmHg 97%
03:00 +1°C° 0 mm 2 mps 723 mmHg 97%
04:00 +1°C° 0 mm 2 mps 723 mmHg 97%
05:00 +1°C° 0 mm 2 mps 724 mmHg 96%
06:00 +1°C° 0 mm 2 mps 724 mmHg 96%
07:00 +1°C° 0 mm 2 mps 725 mmHg 95%
08:00 +1°C° 0 mm 2 mps 725 mmHg 95%
09:00 +1°C° 0 mm 2 mps 726 mmHg 94%
10:00 +1°C° 0 mm 2 mps 726 mmHg 94%
11:00 +2°C° 0 mm 2 mps 727 mmHg 93%
12:00 +2°C° 0 mm 2 mps 728 mmHg 91%
13:00 +3°C° 0 mm 2 mps 729 mmHg 90%
14:00 +3°C° 0 mm 2 mps 729 mmHg 90%
15:00 +2°C° 0 mm 2 mps 730 mmHg 90%
16:00 +2°C° 0 mm 2 mps 731 mmHg 90%
17:00 +2°C° 0 mm 2 mps 732 mmHg 90%
18:00 +2°C° 0 mm 1 mps 733 mmHg 91%
19:00 +1°C° 0 mm 1 mps 734 mmHg 91%
20:00 +1°C° 0 mm 1 mps 734 mmHg 91%
21:00 0°C° 0 mm 1 mps 735 mmHg 91%
22:00 -1°C° 0 mm 1 mps 736 mmHg 91%
23:00 -1°C° 0 mm 1 mps 736 mmHg 91%

2 February, Tuesday

Time Temperature Precipitation Wind Pressure Humidity
00:00 -2°C° 0 mm 0 mps 737 mmHg 90%
01:00 -3°C° 0 mm 0 mps 737 mmHg 90%
02:00 -3°C° 0 mm 0 mps 737 mmHg 90%
03:00 -3°C° 0 mm 0 mps 738 mmHg 90%
04:00 -3°C° 0 mm 0 mps 738 mmHg 90%
05:00 -3°C° 0 mm 0 mps 738 mmHg 90%
06:00 -3°C° 0 mm 0 mps 738 mmHg 91%
07:00 -2°C° 0 mm 1 mps 738 mmHg 91%
08:00 -1°C° 0 mm 1 mps 738 mmHg 90%
09:00 0°C° 0 mm 1 mps 738 mmHg 89%
10:00 -1°C° 0 mm 2 mps 738 mmHg 87%
11:00 +1°C° 0.2 mm 2 mps 737 mmHg 90%
12:00 0°C° 0.2 mm 3 mps 736 mmHg 92%
13:00 +1°C° 0.2 mm 3 mps 735 mmHg 95%
14:00 +1°C° 0.7 mm 3 mps 734 mmHg 96%
15:00 +2°C° 0.7 mm 3 mps 733 mmHg 97%
16:00 +2°C° 0.7 mm 3 mps 732 mmHg 97%
17:00 +3°C° 1.1 mm 3 mps 732 mmHg 97%
18:00 +3°C° 1.1 mm 4 mps 731 mmHg 98%
19:00 +4°C° 1.1 mm 4 mps 731 mmHg 98%
20:00 +5°C° 0.8 mm 4 mps 731 mmHg 97%
21:00 +6°C° 0.8 mm 4 mps 732 mmHg 97%
22:00 +6°C° 0.8 mm 4 mps 732 mmHg 97%
23:00 +6°C° 0.2 mm 4 mps 732 mmHg 96%
Show more